LEMUR-2-JENNYBARNA

Last updated on Wed Feb 14 2018 16:20:43 GMT+0000 (Coordinated Universal Time)

1 42753U 17019C 18045.20775518 .00001553 00000-0 66831-4 0 9994 2 42753 51.6422 319.9861 0010837 124.6127 235.5876 15.29031476 38254
UTC large
Height (km)
Speed (km/s)
/
Latitude / Longitude
Inclination (degrees)
Orbital Period (minutes)
Azimuth
Elevation
Range (km)
Doppler Factor

Next 0 passes for location: London (51.5072 / 0.1276)

Sorry there are no passes over London.
LEMUR-2-JENNYBARNA